Location: *
(50.3194°N, 7.1067°E)
Time: 00:21:10
(UTC+00:00)

ADEOS Rocket - Pass Details

Date: 22 September 2019
Orbit: 859 x 1306 km, 98.7° (Epoch: 15 October)

Event Time Altitude Azimuth Distance (km) Brightness Sun altitude
Rises 18:42:23 0° 18° (NNE) 4,100 6.2 -12.2°
Reaches altitude 10° 18:45:11 10° 26° (NNE) 3,186 5.6 -12.6°
Maximum altitude 18:52:06 40° 95° (E) 1,796 3.9 -13.6°
Drops below altitude 10° 18:59:17 10° 163° (SSE) 3,316 5.4 -14.7°
Sets 19:02:14 0° 170° (S) 4,283 6.1 -15.2°
